• In Portugal
  • List of Countries
  • For 7 days
  • Water Temperature
  • Satellite Maps
  • Weather Map
  • Weather Widgets
  • user-avatar
    Login

    Hourly Weather Stara Zagora

    Today, 25 September, Tuesday

    Time Temperature Precipitation Wind Pressure Humidity
    00:00 +14°C° 0 mm 7 mps 745 mmHg 48%
    01:00 +14°C° 0 mm 6 mps 745 mmHg 47%
    02:00 +14°C° 0 mm 6 mps 746 mmHg 47%
    03:00 +13°C° 0 mm 6 mps 746 mmHg 47%
    04:00 +13°C° 0 mm 5 mps 747 mmHg 47%
    05:00 +13°C° 0 mm 5 mps 747 mmHg 47%
    06:00 +13°C° 0 mm 5 mps 748 mmHg 45%
    07:00 +13°C° 0 mm 5 mps 748 mmHg 44%
    08:00 +13°C° 0 mm 5 mps 749 mmHg 43%
    09:00 +14°C° 0 mm 5 mps 749 mmHg 38%
    10:00 +15°C° 0 mm 5 mps 749 mmHg 33%
    11:00 +17°C° 0 mm 5 mps 749 mmHg 28%
    12:00 +17°C° 0 mm 6 mps 749 mmHg 26%
    13:00 +19°C° 0 mm 6 mps 749 mmHg 24%
    14:00 +20°C° 0 mm 6 mps 749 mmHg 21%
    15:00 +19°C° 0 mm 6 mps 749 mmHg 22%
    16:00 +19°C° 0 mm 5 mps 749 mmHg 23%
    17:00 +17°C° 0 mm 5 mps 749 mmHg 24%
    18:00 +15°C° 0 mm 4 mps 749 mmHg 28%
    19:00 +14°C° 0 mm 4 mps 750 mmHg 33%
    20:00 +12°C° 0 mm 3 mps 751 mmHg 37%
    21:00 +12°C° 0 mm 2 mps 751 mmHg 41%
    22:00 +12°C° 0 mm 2 mps 752 mmHg 44%
    23:00 +10°C° 0 mm 2 mps 752 mmHg 47%

    Tomorrow, 26 September, Wednesday

    Time Temperature Precipitation Wind Pressure Humidity
    00:00 +9°C° 0 mm 2 mps 752 mmHg 47%
    01:00 +9°C° 0 mm 2 mps 752 mmHg 48%
    02:00 +9°C° 0 mm 2 mps 753 mmHg 48%
    03:00 +8°C° 0 mm 2 mps 753 mmHg 49%
    04:00 +8°C° 0 mm 2 mps 753 mmHg 51%
    05:00 +7°C° 0 mm 2 mps 753 mmHg 53%
    06:00 +8°C° 0 mm 3 mps 753 mmHg 50%
    07:00 +9°C° 0 mm 3 mps 754 mmHg 48%
    08:00 +10°C° 0 mm 3 mps 754 mmHg 45%
    09:00 +12°C° 0 mm 4 mps 754 mmHg 41%
    10:00 +13°C° 0 mm 5 mps 754 mmHg 37%
    11:00 +15°C° 0 mm 5 mps 754 mmHg 33%
    12:00 +15°C° 0 mm 6 mps 754 mmHg 32%
    13:00 +16°C° 0 mm 6 mps 753 mmHg 31%
    14:00 +16°C° 0 mm 6 mps 753 mmHg 30%
    15:00 +16°C° 0 mm 6 mps 753 mmHg 31%
    16:00 +15°C° 0 mm 6 mps 753 mmHg 32%
    17:00 +15°C° 0 mm 6 mps 752 mmHg 33%
    18:00 +13°C° 0 mm 5 mps 753 mmHg 37%
    19:00 +12°C° 0 mm 4 mps 753 mmHg 40%
    20:00 +10°C° 0 mm 3 mps 754 mmHg 44%
    21:00 +10°C° 0 mm 3 mps 754 mmHg 45%
    22:00 +9°C° 0 mm 3 mps 754 mmHg 47%
    23:00 +8°C° 0 mm 3 mps 754 mmHg 48%

    Day after tomorrow, 27 September, Thursday

    Time Temperature Precipitation Wind Pressure Humidity
    00:00 +8°C° 0 mm 3 mps 754 mmHg 50%
    01:00 +7°C° 0 mm 3 mps 754 mmHg 51%
    02:00 +7°C° 0 mm 3 mps 754 mmHg 53%
    03:00 +7°C° 0 mm 3 mps 753 mmHg 54%
    04:00 +5°C° 0 mm 3 mps 753 mmHg 55%
    05:00 +5°C° 0 mm 3 mps 753 mmHg 56%
    06:00 +7°C° 0 mm 3 mps 753 mmHg 52%
    07:00 +7°C° 0 mm 4 mps 752 mmHg 48%
    08:00 +8°C° 0 mm 4 mps 752 mmHg 44%
    09:00 +10°C° 0 mm 5 mps 752 mmHg 39%
    10:00 +13°C° 0 mm 5 mps 752 mmHg 34%
    11:00 +15°C° 0 mm 6 mps 752 mmHg 29%
    12:00 +16°C° 0 mm 6 mps 751 mmHg 27%
    13:00 +16°C° 0 mm 6 mps 750 mmHg 26%
    14:00 +17°C° 0 mm 6 mps 750 mmHg 24%
    15:00 +17°C° 0 mm 6 mps 749 mmHg 25%
    16:00 +17°C° 0 mm 6 mps 749 mmHg 26%
    17:00 +16°C° 0 mm 5 mps 748 mmHg 27%
    18:00 +14°C° 0 mm 5 mps 748 mmHg 31%
    19:00 +12°C° 0 mm 4 mps 748 mmHg 35%
    20:00 +11°C° 0 mm 3 mps 749 mmHg 39%
    21:00 +10°C° 0 mm 3 mps 748 mmHg 40%
    22:00 +9°C° 0 mm 3 mps 748 mmHg 41%
    23:00 +9°C° 0 mm 2 mps 748 mmHg 42%

    28 September, Friday

    Time Temperature Precipitation Wind Pressure Humidity
    00:00 +9°C° 0 mm 3 mps 748 mmHg 43%
    01:00 +8°C° 0 mm 3 mps 748 mmHg 43%
    02:00 +8°C° 0 mm 3 mps 747 mmHg 43%
    03:00 +8°C° 0 mm 3 mps 747 mmHg 43%
    04:00 +8°C° 0 mm 3 mps 747 mmHg 43%
    05:00 +8°C° 0 mm 3 mps 747 mmHg 42%
    06:00 +9°C° 0 mm 3 mps 747 mmHg 40%
    07:00 +10°C° 0 mm 3 mps 747 mmHg 37%
    08:00 +12°C° 0 mm 3 mps 747 mmHg 35%
    09:00 +14°C° 0 mm 3 mps 746 mmHg 33%
    10:00 +17°C° 0 mm 3 mps 746 mmHg 31%
    11:00 +19°C° 0 mm 3 mps 746 mmHg 29%
    12:00 +20°C° 0 mm 3 mps 746 mmHg 28%
    13:00 +21°C° 0 mm 3 mps 745 mmHg 27%
    14:00 +21°C° 0 mm 3 mps 745 mmHg 26%
    15:00 +21°C° 0.1 mm 3 mps 744 mmHg 28%
    16:00 +21°C° 0.1 mm 3 mps 744 mmHg 30%
    17:00 +21°C° 0.1 mm 2 mps 744 mmHg 32%
    18:00 +19°C° 0 mm 2 mps 744 mmHg 37%
    19:00 +17°C° 0 mm 2 mps 744 mmHg 42%
    20:00 +15°C° 0 mm 2 mps 744 mmHg 47%
    21:00 +15°C° 0 mm 1 mps 744 mmHg 49%
    22:00 +14°C° 0 mm 1 mps 744 mmHg 51%
    23:00 +14°C° 0 mm 1 mps 744 mmHg 54%

    29 September, Saturday

    Time Temperature Precipitation Wind Pressure Humidity
    00:00 +13°C° 0 mm 1 mps 743 mmHg 54%
    01:00 +13°C° 0 mm 1 mps 743 mmHg 54%
    02:00 +13°C° 0 mm 1 mps 743 mmHg 55%
    03:00 +13°C° 0 mm 1 mps 743 mmHg 55%
    04:00 +12°C° 0 mm 1 mps 743 mmHg 56%
    05:00 +12°C° 0 mm 2 mps 742 mmHg 56%
    06:00 +13°C° 0 mm 2 mps 743 mmHg 53%
    07:00 +15°C° 0 mm 2 mps 743 mmHg 51%
    08:00 +16°C° 0 mm 2 mps 743 mmHg 48%
    09:00 +18°C° 0 mm 2 mps 743 mmHg 44%
    10:00 +20°C° 0 mm 2 mps 743 mmHg 41%
    11:00 +23°C° 0 mm 2 mps 742 mmHg 38%
    12:00 +23°C° 0 mm 2 mps 742 mmHg 36%
    13:00 +24°C° 0 mm 2 mps 742 mmHg 35%
    14:00 +25°C° 0 mm 2 mps 741 mmHg 34%
    15:00 +25°C° 0 mm 2 mps 741 mmHg 35%
    16:00 +24°C° 0 mm 2 mps 741 mmHg 36%
    17:00 +24°C° 0 mm 2 mps 741 mmHg 38%
    18:00 +21°C° 0 mm 2 mps 741 mmHg 42%
    19:00 +19°C° 0 mm 2 mps 742 mmHg 47%
    20:00 +17°C° 0 mm 2 mps 742 mmHg 51%
    21:00 +18°C° 0 mm 1 mps 742 mmHg 52%
    22:00 +16°C° 0 mm 1 mps 743 mmHg 53%
    23:00 +16°C° 0 mm 1 mps 743 mmHg 54%

    30 September, Sunday

    Time Temperature Precipitation Wind Pressure Humidity
    00:00 +16°C° 0 mm 1 mps 743 mmHg 54%
    01:00 +15°C° 0 mm 1 mps 743 mmHg 55%
    02:00 +15°C° 0 mm 1 mps 743 mmHg 55%
    03:00 +15°C° 0 mm 1 mps 743 mmHg 55%
    04:00 +15°C° 0 mm 1 mps 744 mmHg 55%
    05:00 +15°C° 0 mm 1 mps 744 mmHg 55%
    06:00 +16°C° 0 mm 1 mps 744 mmHg 52%
    07:00 +18°C° 0 mm 1 mps 744 mmHg 49%
    08:00 +19°C° 0 mm 1 mps 745 mmHg 46%
    09:00 +21°C° 0 mm 1 mps 745 mmHg 42%
    10:00 +23°C° 0 mm 1 mps 745 mmHg 38%
    11:00 +25°C° 0 mm 1 mps 745 mmHg 33%
    12:00 +25°C° 0 mm 1 mps 745 mmHg 32%
    13:00 +26°C° 0 mm 1 mps 744 mmHg 31%
    14:00 +27°C° 0 mm 1 mps 744 mmHg 29%
    15:00 +26°C° 0 mm 1 mps 744 mmHg 31%
    16:00 +26°C° 0 mm 1 mps 743 mmHg 32%
    17:00 +25°C° 0 mm 1 mps 743 mmHg 33%
    18:00 +24°C° 0 mm 1 mps 743 mmHg 37%
    19:00 +22°C° 0 mm 1 mps 744 mmHg 40%
    20:00 +20°C° 0 mm 1 mps 744 mmHg 44%
    21:00 +20°C° 0 mm 1 mps 744 mmHg 48%
    22:00 +19°C° 0 mm 1 mps 744 mmHg 52%
    23:00 +18°C° 0 mm 1 mps 744 mmHg 56%
    Show more